Location: Buch
(49.7331°N, 12.1098°E)
Time: 09:19:01
(UTC+00:00)

USA 245 - Pass Details

Date: 12 May 2021
Orbit: 265 x 982 km, 97.9° (Epoch: 08 June)

Event Time Altitude Azimuth Distance (km) Brightness Sun altitude
Exits shadow 20:04:04 21° 147° (SSE) 668 3.2 -10.7°
Maximum altitude 20:05:18 57° 73° (ENE) 325 2.0 -10.9°
Drops below altitude 10° 20:07:34 10° 353° (N) 1,114 5.8 -11.1°
Sets 20:09:28 0° 350° (N) 1,981 7.2 -11.3°
